DateTimeUTC,F1_A11,F1_S11,BsB_S11,BsG_S11,BsR_S11,BbsB_S11,BbsG_S11,BbsR_S11,BaB_A11,BaG_A11,BaR_A11,Tu_S11,T_S11,Uu_S11,U_S11,P_S11,T1_A11
2021-06-22T06:00:00Z,00040200,20000000,,,,,,,-000.53,0000.28,0000.57,17.8,24.8,01.7,01.1,0669.5,31.0
2021-06-22T06:01:00Z,00040200,20000000,,,,,,,0000.80,-000.06,-000.28,17.8,24.8,01.7,01.1,0669.5,31.0
2021-06-22T06:02:00Z,00040200,20000000,,,,,,,0000.08,0000.10,0000.22,17.8,24.8,01.7,01.1,0669.5,31.1
2021-06-22T06:03:00Z,00040200,60000000,,,,,,,0002.25,0002.23,0001.44,17.8,24.8,01.7,01.1,0669.5,31.1
2021-06-22T06:04:00Z,00040200,40000000,0001.04,0000.51,0000.02,-000.07,-000.02,0000.21,0002.47,0002.29,0002.09,18.2,24.7,01.9,01.3,0670.5,31.1
2021-06-22T06:05:00Z,00040200,00000000,0001.49,0000.69,0000.52,-000.12,0000.26,0000.25,0001.89,0002.14,0001.36,18.3,24.7,01.9,01.3,0670.6,31.1
2021-06-22T06:06:00Z,00040200,01000000,0001.14,0000.62,0000.35,0000.46,0000.40,-000.17,0002.88,0001.76,0001.70,18.3,24.7,01.9,01.3,0670.5,31.1
2021-06-22T06:07:00Z,00040200,01000000,0001.05,0000.51,0000.66,-000.18,0000.19,-000.02,0001.44,0001.83,0001.07,18.3,24.7,02.0,01.3,0670.6,31.1
2021-06-22T06:08:00Z,00040200,00000000,0001.17,0000.52,0000.35,-000.20,0000.29,0000.05,0003.06,0002.75,0002.45,18.2,24.7,01.9,01.3,0670.6,31.1
2021-06-22T06:09:00Z,00040200,00000000,0001.01,0000.63,0000.25,0000.35,0000.58,0000.12,0005.36,0004.75,0003.33,18.1,24.6,01.9,01.3,0670.5,31.1
2021-06-22T06:10:00Z,00040200,01000000,0001.04,0000.76,0000.50,0000.26,0000.13,0000.21,0003.75,0003.23,0002.82,18.1,24.6,01.9,01.3,0670.5,31.0
2021-06-22T06:11:00Z,00040200,01000000,0000.86,0000.60,0000.52,0000.03,0000.27,0000.25,0003.82,0003.57,0002.98,18.0,24.6,01.9,01.3,0670.6,31.0
2021-06-22T06:12:00Z,00040200,01000000,0001.44,0000.18,0000.28,0000.05,0000.07,0000.06,0003.30,0003.20,0002.56,18.0,24.5,01.8,01.2,0670.6,31.0
2021-06-22T06:13:00Z,00040200,01000000,0001.24,0000.46,0000.21,0000.01,0000.23,-000.20,0002.45,0002.20,0001.51,17.9,24.5,01.9,01.3,0670.6,31.0
2021-06-22T06:14:00Z,00040200,00000000,0000.72,0000.72,0000.55,0000.28,0000.10,0000.08,0001.88,0001.83,0001.28,17.9,24.5,01.9,01.3,0670.6,31.0
2021-06-22T06:15:00Z,00040200,00000000,0001.02,0000.22,0000.44,-000.08,0000.30,0000.20,0001.23,0000.97,0001.23,18.0,24.5,01.9,01.3,0670.6,31.0
2021-06-22T06:16:00Z,00040200,00000000,0001.05,0000.63,0000.48,0000.58,0000.25,0000.18,0000.94,0001.07,0001.07,18.1,24.5,01.9,01.3,0670.6,31.0
2021-06-22T06:17:00Z,00040200,01000000,0000.97,0000.58,0000.26,-000.03,0000.06,-000.21,0001.17,0001.17,0000.68,18.2,24.5,02.0,01.3,0670.6,31.0
2021-06-22T06:18:00Z,00040200,01000000,0001.01,0000.67,0000.43,0000.41,0000.39,0000.08,0000.80,0000.82,0000.35,18.2,24.6,01.9,01.3,0670.6,31.1
2021-06-22T06:19:00Z,00040200,00000000,0001.17,0000.51,0000.19,-000.16,0000.36,0000.06,0000.68,0000.29,0000.34,18.3,24.6,01.9,01.3,0670.7,31.1
2021-06-22T06:20:00Z,00040200,01000000,0000.95,0000.49,0000.29,0000.02,0000.14,-000.03,0000.56,0000.80,0000.49,18.4,24.7,01.8,01.2,0670.7,31.1
2021-06-22T06:21:00Z,00040200,01000000,0000.58,0000.80,0000.74,-000.05,0000.21,-000.05,0000.32,0000.68,0000.52,18.4,24.7,01.8,01.2,0670.7,31.1
2021-06-22T06:22:00Z,00040200,01000000,0000.83,0000.40,0000.57,0000.70,0000.07,0000.03,0000.48,0000.02,0000.26,18.4,24.7,01.8,01.2,0670.7,31.1
2021-06-22T06:23:00Z,00040200,01000000,0001.17,0000.47,0000.35,-000.46,0000.19,-000.34,0000.98,0000.88,0000.94,18.3,24.7,01.8,01.2,0670.7,31.1
2021-06-22T06:24:00Z,00040200,01000000,0001.43,0000.76,0000.52,0000.62,0000.12,0000.29,0000.49,0000.81,0000.27,18.2,24.7,01.7,01.2,0670.7,31.1
2021-06-22T06:25:00Z,00040200,01000000,0001.14,0000.01,0000.28,0000.08,0000.15,-000.05,0000.85,0000.23,0000.52,18.2,24.6,01.8,01.2,0670.7,31.1
2021-06-22T06:26:00Z,00040200,01000000,0000.89,0000.39,0000.60,-000.21,0000.12,-000.15,0000.37,0000.13,0000.37,18.1,24.6,01.7,01.2,0670.7,31.0
2021-06-22T06:27:00Z,00040200,01000000,0001.18,0000.43,0000.68,-000.11,0000.35,-000.21,0000.14,0000.75,0000.16,18.1,24.5,01.8,01.2,0670.7,31.0
2021-06-22T06:28:00Z,00040200,01000000,0001.58,0000.69,0000.15,-000.28,0000.08,-000.21,0000.73,0000.93,0000.14,18.0,24.5,01.8,01.2,0670.7,31.0
2021-06-22T06:29:00Z,00040200,01000000,0001.02,0000.28,0000.03,0000.17,0000.08,-000.14,0000.65,-000.01,0000.45,18.0,24.5,01.8,01.2,0670.7,31.0
2021-06-22T06:30:00Z,00040200,01000000,0001.11,0000.32,0000.32,0000.01,0000.13,-000.02,0000.37,0000.57,0000.51,18.1,24.5,01.8,01.2,0670.7,31.0
2021-06-22T06:31:00Z,00040200,01000000,0000.86,0000.75,0000.18,0000.02,0000.45,0000.12,0000.58,0000.31,0000.48,18.2,24.5,01.8,01.2,0670.7,31.0
2021-06-22T06:32:00Z,00040200,01000000,0000.36,0000.59,0000.21,-000.37,0000.09,0000.01,0000.45,0000.95,0000.28,18.2,24.6,01.8,01.3,0670.8,31.1
2021-06-22T06:33:00Z,00040200,01000000,0000.79,0000.14,0000.36,0000.02,0000.12,0000.03,0000.76,0000.43,0000.57,18.3,24.6,01.7,01.2,0670.8,31.1
2021-06-22T06:34:00Z,00040200,01000000,0000.77,0000.65,0000.08,0000.27,0000.41,0000.13,0000.26,0000.15,0000.40,18.4,24.7,01.7,01.2,0670.8,31.1
2021-06-22T06:35:00Z,00040200,01000000,0001.10,0000.65,0000.38,0000.07,0000.38,-000.13,0000.79,0000.78,0000.15,18.4,24.7,01.8,01.2,0670.8,31.1
2021-06-22T06:36:00Z,00040200,01000000,0000.95,0000.31,0000.29,0000.05,0000.18,0000.02,0000.12,-000.07,0000.42,18.4,24.7,01.7,01.2,0670.8,31.1
2021-06-22T06:37:00Z,00040200,00000000,0001.20,0000.21,0000.08,0000.16,0000.28,0000.00,0000.65,0000.57,0000.13,18.3,24.7,01.8,01.2,0670.8,31.1
2021-06-22T06:38:00Z,00040200,01000000,0000.63,0000.48,0000.42,-000.47,0000.04,0000.07,0000.76,0000.82,0000.32,18.3,24.6,01.8,01.2,0670.8,31.1
2021-06-22T06:39:00Z,00040200,01000000,0001.19,0000.49,0000.39,0000.39,0000.05,-000.36,0000.69,0000.67,0000.87,18.2,24.6,01.8,01.2,0670.8,31.1
2021-06-22T06:40:00Z,00040200,01000000,0000.62,0000.72,0000.47,-000.03,0000.26,0000.28,0000.09,0000.19,0000.15,18.1,24.6,01.8,01.2,0670.8,31.0
2021-06-22T06:41:00Z,00040200,01000000,0001.37,0000.68,0000.03,0000.36,-000.03,0000.13,0000.61,0000.40,0000.51,18.1,24.6,01.8,01.2,0670.8,31.0
2021-06-22T06:42:00Z,00040200,01000000,0000.36,0000.27,0000.44,-000.25,0000.21,-000.06,0000.41,0000.29,-000.08,18.0,24.5,01.9,01.3,0670.8,31.0
2021-06-22T06:43:00Z,00040200,00000000,0000.42,0000.54,0000.16,0000.42,0000.08,0000.17,0001.05,0000.75,0000.75,18.0,24.5,02.0,01.3,0670.8,31.0
2021-06-22T06:44:00Z,00040200,00000000,0001.16,0000.52,0000.35,-000.26,0000.19,0000.08,0000.60,0000.81,0000.34,18.0,24.5,01.9,01.3,0670.8,31.0
2021-06-22T06:45:00Z,00040200,00000000,0000.93,0000.63,0000.49,-000.46,0000.20,0000.36,0000.47,0000.66,0000.87,18.1,24.5,01.9,01.3,0670.8,31.0
2021-06-22T06:46:00Z,00040200,01000000,0001.25,0000.35,0000.30,0000.17,0000.15,-000.11,0000.60,0000.42,0000.10,18.1,24.5,01.9,01.3,0670.9,31.0
2021-06-22T06:47:00Z,00040200,01000000,0000.95,0000.48,0000.03,-000.03,0000.13,0000.07,0000.32,0000.55,0000.32,18.2,24.6,01.9,01.3,0670.9,31.1
2021-06-22T06:48:00Z,00040200,01000000,0001.29,0000.55,0000.27,0000.36,0000.24,0000.04,0000.38,0000.55,0000.52,18.3,24.6,02.0,01.4,0670.9,31.0
2021-06-22T06:49:00Z,00040200,01000000,0000.89,0000.71,0000.12,0000.27,0000.12,0000.08,0000.20,0000.03,0000.20,18.3,24.7,01.9,01.3,0670.9,31.1
2021-06-22T06:50:00Z,00040200,00000000,0000.80,0000.65,0000.21,-000.15,0000.15,0000.54,0000.30,0000.33,0000.06,18.3,24.7,01.8,01.2,0670.9,31.1
2021-06-22T06:51:00Z,00040200,01000000,0001.08,0000.66,0000.20,0000.09,-000.06,-000.03,0000.79,0000.60,0000.90,18.3,24.6,01.9,01.3,0670.9,31.1
2021-06-22T06:52:00Z,00040200,00000000,0000.66,0000.56,0000.40,0000.14,0000.01,-000.13,0000.64,0000.83,0000.36,18.2,24.6,01.9,01.3,0670.9,31.0
2021-06-22T06:53:00Z,00040200,01000000,0000.96,0000.47,0000.46,-000.04,0000.23,0000.31,0000.33,0000.34,0000.41,18.2,24.6,01.8,01.2,0670.9,31.0
2021-06-22T06:54:00Z,00040200,01000000,0001.08,0000.27,0000.30,0000.19,0000.11,-000.21,0000.64,0000.20,0000.04,18.1,24.6,01.8,01.2,0670.9,31.0
2021-06-22T06:55:00Z,00040200,01000000,0001.29,0000.48,0000.26,-000.32,0000.15,-000.01,0000.31,0000.03,0000.31,18.0,24.5,01.9,01.3,0670.9,31.0
2021-06-22T06:56:00Z,00040200,00000000,0001.81,0000.64,0000.55,0000.34,-000.06,0000.02,0000.70,0000.92,0000.47,18.0,24.5,01.9,01.3,0670.8,31.0
2021-06-22T06:57:00Z,00040200,40000000,,,,,,,0000.38,0000.37,0000.42,18.0,24.5,01.6,01.1,0670.8,31.0
2021-06-22T06:58:00Z,00040200,60000000,,,,,,,-000.17,0000.24,-000.17,17.7,24.6,01.8,01.1,0669.9,31.0
2021-06-22T06:59:00Z,00040200,20000000,,,,,,,0000.70,-000.12,0000.09,17.7,24.7,01.7,01.1,0669.8,31.0
